QLK326D YBBN-YBUD

Flight info

Callsign QLK326D
Flight time 0h 41m
Altitude 20000
Route BIXAD Q67 GUDSO Q295 SOSTU
Aircraft DH8D/M-SDE2E3FGRY/H

Departure

Time 2026-04-28 08:03
Airport Brisbane International Airport (YBBN)

Arrival

Time 2026-04-28 08:45
Airport Bundaberg Airport (YBUD)
Time Latitude Longitude Altitude Speed Heading
2026-04-28 07:28 -27.38091 153.12137 23 ft 0 kts 171°
2026-04-28 07:54 -27.38095 153.12137 22 ft 2 kts 178°
2026-04-28 07:54 -27.38126 153.12146 22 ft 8 kts 148°
2026-04-28 07:54 -27.38171 153.12209 22 ft 9 kts 117°
2026-04-28 07:55 -27.38206 153.12294 22 ft 12 kts 105°
2026-04-28 07:55 -27.38236 153.12376 22 ft 12 kts 116°
2026-04-28 07:55 -27.38285 153.12485 22 ft 15 kts 118°
2026-04-28 07:55 -27.38303 153.12578 22 ft 11 kts 57°
2026-04-28 07:56 -27.38239 153.12622 22 ft 12 kts 26°
2026-04-28 07:56 -27.38138 153.12680 22 ft 19 kts 27°
2026-04-28 07:56 -27.38031 153.12743 22 ft 15 kts 28°
2026-04-28 07:56 -27.37948 153.12753 22 ft 12 kts 321°
2026-04-28 07:57 -27.37898 153.12656 22 ft 18 kts 297°
2026-04-28 07:57 -27.37834 153.12515 22 ft 19 kts 297°
2026-04-28 07:57 -27.37776 153.12387 22 ft 17 kts 297°
2026-04-28 07:57 -27.37711 153.12244 22 ft 23 kts 296°
2026-04-28 07:58 -27.37641 153.12089 22 ft 20 kts 297°
2026-04-28 07:58 -27.37580 153.11957 22 ft 17 kts 296°
2026-04-28 07:58 -27.37527 153.11841 22 ft 15 kts 297°
2026-04-28 07:58 -27.37479 153.11737 22 ft 14 kts 297°
2026-04-28 07:59 -27.37436 153.11641 22 ft 13 kts 297°
2026-04-28 07:59 -27.37383 153.11556 22 ft 12 kts 341°
2026-04-28 07:59 -27.37299 153.11581 22 ft 15 kts 28°
2026-04-28 07:59 -27.37203 153.11636 22 ft 13 kts 26°
2026-04-28 08:00 -27.37122 153.11681 22 ft 14 kts 27°
2026-04-28 08:00 -27.37012 153.11745 22 ft 18 kts 27°
2026-04-28 08:00 -27.36906 153.11804 22 ft 17 kts 26°
2026-04-28 08:00 -27.36791 153.11871 22 ft 18 kts 27°
2026-04-28 08:01 -27.36693 153.11928 22 ft 12 kts 24°
2026-04-28 08:01 -27.36632 153.11891 22 ft 11 kts 294°
2026-04-28 08:01 -27.36601 153.11822 22 ft 4 kts 298°
2026-04-28 08:01 -27.36593 153.11807 22 ft 2 kts 298°
2026-04-28 08:02 -27.36583 153.11786 22 ft 4 kts 297°
2026-04-28 08:02 -27.36561 153.11734 22 ft 10 kts 296°
2026-04-28 08:02 -27.36551 153.11688 22 ft 4 kts 236°
2026-04-28 08:02 -27.36567 153.11676 22 ft 0 kts 205°
2026-04-28 08:03 -27.36650 153.11627 23 ft 48 kts 207°
2026-04-28 08:03 -27.37224 153.11299 23 ft 130 kts 207°
2026-04-28 08:03 -27.38139 153.10748 237 ft 159 kts 207°
2026-04-28 08:03 -27.39145 153.10097 769 ft 174 kts 213°
2026-04-28 08:04 -27.39815 153.08922 1319 ft 193 kts 256°
2026-04-28 08:04 -27.39628 153.07408 1907 ft 205 kts 298°
2026-04-28 08:04 -27.38707 153.06076 2230 ft 228 kts 313°
2026-04-28 08:04 -27.37648 153.04730 2831 ft 235 kts 312°
2026-04-28 08:05 -27.36573 153.03320 3523 ft 239 kts 309°
2026-04-28 08:05 -27.35480 153.01900 4182 ft 241 kts 325°
2026-04-28 08:05 -27.33943 153.01367 4790 ft 234 kts
2026-04-28 08:05 -27.32328 153.01579 5501 ft 234 kts 14°
2026-04-28 08:06 -27.30735 153.01909 6199 ft 235 kts 16°
2026-04-28 08:06 -27.29132 153.02318 6907 ft 236 kts 18°
2026-04-28 08:06 -27.27547 153.02776 7603 ft 239 kts 19°
2026-04-28 08:06 -27.25942 153.03279 8255 ft 242 kts 20°
2026-04-28 08:07 -27.24313 153.03821 8913 ft 244 kts 21°
2026-04-28 08:07 -27.22689 153.04382 9570 ft 247 kts 21°
2026-04-28 08:07 -27.21043 153.04968 10212 ft 249 kts 21°
2026-04-28 08:07 -27.19403 153.05563 10815 ft 253 kts 22°
2026-04-28 08:08 -27.17652 153.06213 11086 ft 268 kts 22°
2026-04-28 08:08 -27.15870 153.06877 11638 ft 272 kts 22°
2026-04-28 08:08 -27.14076 153.07550 12241 ft 273 kts 21°
2026-04-28 08:08 -27.12274 153.08229 12821 ft 276 kts 21°
2026-04-28 08:09 -27.10430 153.08926 13421 ft 278 kts 21°
2026-04-28 08:09 -27.08615 153.09616 13986 ft 280 kts 21°
2026-04-28 08:09 -27.06737 153.10330 14555 ft 283 kts 21°
2026-04-28 08:09 -27.04875 153.11040 15125 ft 286 kts 21°
2026-04-28 08:10 -27.03005 153.11752 15717 ft 288 kts 21°
2026-04-28 08:10 -27.01092 153.12482 16295 ft 290 kts 21°
2026-04-28 08:10 -26.99189 153.13208 16869 ft 292 kts 21°
2026-04-28 08:10 -26.97236 153.13954 17422 ft 295 kts 21°
2026-04-28 08:11 -26.95300 153.14693 17961 ft 298 kts 21°
2026-04-28 08:11 -26.93318 153.15448 18515 ft 300 kts 20°
2026-04-28 08:11 -26.91342 153.16202 19038 ft 304 kts 20°
2026-04-28 08:11 -26.89321 153.16972 19576 ft 307 kts 20°
2026-04-28 08:12 -26.87310 153.17740 20065 ft 311 kts 20°
2026-04-28 08:12 -26.85191 153.18549 20191 ft 327 kts 19°
2026-04-28 08:12 -26.82975 153.19394 20214 ft 342 kts 19°
2026-04-28 08:12 -26.80709 153.20254 20200 ft 344 kts 19°
2026-04-28 08:13 -26.78451 153.21109 20202 ft 345 kts 19°
2026-04-28 08:13 -26.76172 153.21974 20209 ft 345 kts 19°
2026-04-28 08:13 -26.73886 153.22842 20211 ft 346 kts 19°
2026-04-28 08:13 -26.71589 153.23715 20202 ft 346 kts 19°
2026-04-28 08:14 -26.69264 153.24315 20171 ft 347 kts
2026-04-28 08:14 -26.66879 153.23891 20228 ft 345 kts 345°
2026-04-28 08:14 -26.64591 153.23119 20204 ft 346 kts 343°
2026-04-28 08:14 -26.62283 153.22317 20196 ft 347 kts 343°
2026-04-28 08:15 -26.59979 153.21515 20193 ft 347 kts 343°
2026-04-28 08:15 -26.57645 153.20702 20189 ft 347 kts 343°
2026-04-28 08:15 -26.55361 153.19910 20193 ft 347 kts 343°
2026-04-28 08:15 -26.53048 153.19107 20197 ft 347 kts 343°
2026-04-28 08:16 -26.50741 153.18308 20196 ft 347 kts 343°
2026-04-28 08:16 -26.48427 153.17506 20200 ft 347 kts 343°
2026-04-28 08:16 -26.46113 153.16707 20195 ft 347 kts 343°
2026-04-28 08:16 -26.43817 153.15913 20197 ft 346 kts 343°
2026-04-28 08:17 -26.41502 153.15114 20193 ft 346 kts 343°
2026-04-28 08:17 -26.39180 153.14313 20191 ft 346 kts 343°
2026-04-28 08:17 -26.36885 153.13521 20188 ft 346 kts 343°
2026-04-28 08:17 -26.34568 153.12723 20188 ft 346 kts 343°
2026-04-28 08:18 -26.32266 153.11929 20182 ft 346 kts 343°
2026-04-28 08:18 -26.29991 153.11145 20184 ft 346 kts 343°
2026-04-28 08:18 -26.27694 153.10307 20180 ft 346 kts 339°
2026-04-28 08:18 -26.25478 153.09212 20184 ft 346 kts 335°
2026-04-28 08:19 -26.23309 153.08069 20179 ft 346 kts 335°
2026-04-28 08:19 -26.21119 153.06915 20176 ft 345 kts 335°
2026-04-28 08:19 -26.18933 153.05766 20173 ft 345 kts 335°
2026-04-28 08:19 -26.16757 153.04627 20173 ft 346 kts 335°
2026-04-28 08:20 -26.14590 153.03491 20174 ft 346 kts 335°
2026-04-28 08:20 -26.12418 153.02356 20180 ft 346 kts 335°
2026-04-28 08:20 -26.10225 153.01211 20182 ft 346 kts 335°
2026-04-28 08:20 -26.08050 153.00078 20168 ft 346 kts 335°
2026-04-28 08:21 -26.05837 152.98924 20176 ft 346 kts 335°
2026-04-28 08:21 -26.03670 152.97795 20168 ft 346 kts 335°
2026-04-28 08:21 -26.01472 152.96651 20178 ft 346 kts 335°
2026-04-28 08:21 -25.99304 152.95523 20182 ft 346 kts 335°
2026-04-28 08:22 -25.97115 152.94386 20177 ft 346 kts 335°
2026-04-28 08:22 -25.94920 152.93247 20176 ft 345 kts 335°
2026-04-28 08:22 -25.92763 152.92125 20176 ft 345 kts 335°
2026-04-28 08:22 -25.90576 152.90990 20181 ft 345 kts 335°
2026-04-28 08:23 -25.88368 152.89844 20179 ft 345 kts 335°
2026-04-28 08:23 -25.86210 152.88725 20168 ft 345 kts 335°
2026-04-28 08:23 -25.84024 152.87592 20171 ft 345 kts 335°
2026-04-28 08:23 -25.81844 152.86462 20176 ft 345 kts 335°
2026-04-28 08:24 -25.79645 152.85323 20175 ft 345 kts 335°
2026-04-28 08:24 -25.77479 152.84201 20173 ft 345 kts 334°
2026-04-28 08:24 -25.75304 152.83077 20168 ft 345 kts 334°
2026-04-28 08:24 -25.73127 152.81950 20164 ft 344 kts 334°
2026-04-28 08:25 -25.70933 152.80815 20169 ft 344 kts 335°
2026-04-28 08:25 -25.68780 152.79703 20170 ft 344 kts 335°
2026-04-28 08:25 -25.66605 152.78578 20171 ft 344 kts 335°
2026-04-28 08:26 -25.62263 152.76337 20173 ft 344 kts 335°
2026-04-28 08:26 -25.60084 152.75212 20168 ft 344 kts 334°
2026-04-28 08:26 -25.57903 152.74086 20168 ft 343 kts 334°
2026-04-28 08:26 -25.55748 152.72975 20162 ft 343 kts 334°
2026-04-28 08:27 -25.53584 152.71860 20167 ft 343 kts 334°
2026-04-28 08:27 -25.51407 152.70738 20171 ft 342 kts 334°
2026-04-28 08:27 -25.49253 152.69609 20172 ft 342 kts 334°
2026-04-28 08:27 -25.47149 152.68497 20153 ft 330 kts 333°
2026-04-28 08:28 -25.45120 152.67421 20155 ft 317 kts 333°
2026-04-28 08:28 -25.43132 152.66370 20162 ft 309 kts 333°
2026-04-28 08:28 -25.41206 152.65353 19940 ft 311 kts 333°
2026-04-28 08:28 -25.39239 152.64316 19589 ft 313 kts 333°
2026-04-28 08:29 -25.37273 152.63278 19206 ft 315 kts 333°
2026-04-28 08:29 -25.35293 152.62234 18804 ft 317 kts 333°
2026-04-28 08:29 -25.33300 152.61186 18387 ft 316 kts 333°
2026-04-28 08:29 -25.31329 152.60147 17980 ft 311 kts 333°
2026-04-28 08:30 -25.29395 152.59129 17578 ft 306 kts 334°
2026-04-28 08:30 -25.27478 152.58121 17177 ft 302 kts 334°
2026-04-28 08:30 -25.25577 152.57121 16788 ft 299 kts 334°
2026-04-28 08:30 -25.23729 152.56149 16404 ft 296 kts 334°
2026-04-28 08:31 -25.21853 152.55165 16010 ft 293 kts 334°
2026-04-28 08:31 -25.20029 152.54208 15633 ft 291 kts 334°
2026-04-28 08:31 -25.18209 152.53253 15256 ft 289 kts 334°
2026-04-28 08:31 -25.16389 152.52298 14878 ft 287 kts 335°
2026-04-28 08:32 -25.14597 152.51360 14501 ft 285 kts 335°
2026-04-28 08:32 -25.12809 152.50423 14134 ft 284 kts 335°
2026-04-28 08:32 -25.11029 152.49490 13770 ft 282 kts 335°
2026-04-28 08:32 -25.09249 152.48558 13403 ft 281 kts 335°
2026-04-28 08:33 -25.07485 152.47636 13034 ft 280 kts 335°
2026-04-28 08:33 -25.05728 152.46716 12671 ft 279 kts 335°
2026-04-28 08:33 -25.03990 152.45807 12311 ft 278 kts 335°
2026-04-28 08:33 -25.02237 152.44891 11942 ft 277 kts 335°
2026-04-28 08:34 -25.00505 152.43986 11585 ft 277 kts 335°
2026-04-28 08:34 -24.98757 152.43074 11218 ft 276 kts 335°
2026-04-28 08:34 -24.97016 152.42165 10861 ft 275 kts 335°
2026-04-28 08:34 -24.95293 152.41264 10495 ft 275 kts 335°
2026-04-28 08:35 -24.93551 152.40356 10148 ft 274 kts 335°
2026-04-28 08:35 -24.91815 152.39450 9716 ft 277 kts 336°
2026-04-28 08:35 -24.90078 152.38545 9294 ft 278 kts 336°
2026-04-28 08:35 -24.88335 152.37636 8904 ft 278 kts 336°
2026-04-28 08:36 -24.86582 152.36723 8537 ft 277 kts 336°
2026-04-28 08:36 -24.84852 152.35818 8166 ft 270 kts 336°
2026-04-28 08:36 -24.83193 152.34949 7823 ft 262 kts 337°
2026-04-28 08:36 -24.81559 152.34094 7481 ft 253 kts 337°
2026-04-28 08:37 -24.79998 152.33278 7156 ft 245 kts 337°
2026-04-28 08:37 -24.78481 152.32486 6843 ft 236 kts 338°
2026-04-28 08:37 -24.77024 152.31725 6549 ft 227 kts 337°
2026-04-28 08:37 -24.75604 152.30986 6250 ft 225 kts 338°
2026-04-28 08:38 -24.74168 152.30246 5955 ft 227 kts 338°
2026-04-28 08:38 -24.72736 152.29498 5638 ft 231 kts 336°
2026-04-28 08:38 -24.71502 152.28316 5014 ft 244 kts 300°
2026-04-28 08:38 -24.71175 152.26546 4506 ft 235 kts 257°
2026-04-28 08:39 -24.71893 152.25069 4191 ft 210 kts 217°
2026-04-28 08:39 -24.72988 152.24094 3949 ft 197 kts 211°
2026-04-28 08:39 -24.74059 152.23192 3680 ft 189 kts 211°
2026-04-28 08:39 -24.75126 152.22450 3352 ft 174 kts 188°
2026-04-28 08:40 -24.76199 152.22613 3165 ft 153 kts 149°
2026-04-28 08:40 -24.77150 152.23190 2964 ft 156 kts 146°
2026-04-28 08:40 -24.78100 152.23799 2759 ft 159 kts 146°
2026-04-28 08:40 -24.79054 152.24425 2535 ft 154 kts 145°
2026-04-28 08:41 -24.79936 152.25011 2352 ft 147 kts 145°
2026-04-28 08:41 -24.80817 152.25597 2159 ft 148 kts 145°
2026-04-28 08:41 -24.81683 152.26180 1942 ft 138 kts 144°
2026-04-28 08:41 -24.82469 152.26712 1781 ft 127 kts 144°
2026-04-28 08:42 -24.83204 152.27211 1618 ft 118 kts 144°
2026-04-28 08:42 -24.83856 152.27655 1439 ft 104 kts 144°
2026-04-28 08:42 -24.84519 152.28090 1372 ft 115 kts 145°
2026-04-28 08:42 -24.85194 152.28548 1187 ft 111 kts 144°
2026-04-28 08:43 -24.85853 152.28998 1049 ft 114 kts 144°
2026-04-28 08:43 -24.86538 152.29491 935 ft 120 kts 140°
2026-04-28 08:43 -24.87242 152.29997 744 ft 123 kts 143°
2026-04-28 08:43 -24.87958 152.30498 545 ft 119 kts 143°
2026-04-28 08:44 -24.88656 152.30983 376 ft 118 kts 145°
2026-04-28 08:44 -24.89346 152.31457 226 ft 117 kts 144°
2026-04-28 08:44 -24.90024 152.31928 115 ft 109 kts 144°
2026-04-28 08:44 -24.90527 152.32280 114 ft 63 kts 148°
2026-04-28 08:45 -24.90758 152.32440 114 ft 10 kts 135°
2026-04-28 08:45 -24.90790 152.32460 114 ft 2 kts 250°
2026-04-28 08:45 -24.90763 152.32439 114 ft 8 kts 330°
2026-04-28 08:45 -24.90688 152.32390 114 ft 16 kts 329°
2026-04-28 08:46 -24.90571 152.32306 114 ft 21 kts 329°
2026-04-28 08:46 -24.90444 152.32224 114 ft 20 kts 329°
2026-04-28 08:46 -24.90331 152.32144 114 ft 18 kts 327°
2026-04-28 08:46 -24.90225 152.32071 114 ft 17 kts 328°
2026-04-28 08:47 -24.90127 152.32001 114 ft 16 kts 328°
2026-04-28 08:47 -24.90028 152.31934 114 ft 15 kts 328°
2026-04-28 08:47 -24.89953 152.31902 113 ft 10 kts 32°
2026-04-28 08:47 -24.89913 152.31963 113 ft 8 kts 58°
2026-04-28 08:48 -24.89869 152.31981 112 ft 8 kts 330°
2026-04-28 08:48 -24.89806 152.31938 111 ft 7 kts 331°
2026-04-28 08:48 -24.89786 152.31950 111 ft 3 kts 80°
2026-04-28 08:48 -24.89785 152.31973 111 ft 2 kts 87°
2026-04-28 08:49 -24.89784 152.31985 110 ft 0 kts 88°